Skip Page Navigation
NASA JPL Caltech
NASA Logo - Jet Propulsion Laboratory + View the NASA Portal
+ Center for Near-Earth Object Studies
JPL Home Earth Solar System Stars & Galaxies Technology
JPL Solar System Dynamics
BODIES ORBITS EPHEMERIDES TOOLS PHYSICAL DATA DISCOVERY FAQ SITE MAP
IMPORTANT: The SSD Announcement email list is now available. Major changes are coming in the near future, including possible hostname and/or URL changes. To be notified of such changes, subscribe to this email list.

Please visit this page for more details.


JPL Small-Body Database Browser
Search: [ help ]  
(2017 MC4)
Classification: Apollo [NEO]          SPK-ID: 3776074
Ephemeris | Orbit Diagram | Orbital Elements | Mission Design | Physical Parameters | Close-Approach Data ]

[ hide orbit diagram ]

For accurate long-term ephemerides, please instead use our Horizons system.This orbit viewer was implemented using two-body methods, and hence should not be used for determining accurate long-term trajectories (over several years or decades) or planetary encounter circumstances.


[ revert to old Java-based viewer ]

Orbital Elements at Epoch 2458600.5 (2019-Apr-27.0) TDB
Reference: JPL 18 (heliocentric ecliptic J2000)
 Element Value Uncertainty (1-sigma)   Units 
e .6557942948382598 2.1585e-07  
a 1.138439172475805 1.8402e-07 au
q .3918572581457823 1.9774e-07 au
i 7.072036597183568 1.2128e-05 deg
node 111.2129974970568 1.5637e-05 deg
peri 300.2603536319376 1.8927e-05 deg
M 127.5204382173497 0.00011028 deg
tp 2458443.340561316072
(2018-Nov-20.84056132)
9.7906e-05 TDB
period 443.6731767638846
1.21
0.00010757
2.945e-07
d
yr
n .8114080788606833 1.9674e-07 deg/d
Q 1.885021086805827 3.047e-07 au
  Orbit Determination Parameters
   # obs. used (total)      156  
   data-arc span      623 days (1.71 yr)  
   first obs. used      2017-06-23  
   last obs. used      2019-03-08  
   planetary ephem.      DE431  
   SB-pert. ephem.      SB431-N16  
   condition code      2  
   norm. resid. RMS      .27677  
   source      ORB  
   producer      Otto Matic  
   solution date      2019-May-17 21:42:31  

Additional Information
 Earth MOID = .00693806 au 
 Jupiter MOID = 3.51566 au 
 T_jup = 5.271 
[ show covariance matrix ]

Ephemeris | Orbit Diagram | Orbital Elements | Mission Design | Physical Parameters | Close-Approach Data ]

Physical Parameter Table
Parameter Symbol Value Units Sigma Reference Notes
absolute magnitude H 22.0   n/a MPO419562  

[ show close-approach data ]
Ephemeris | Orbit Diagram | Orbital Elements | Mission Design | Physical Parameters | Close-Approach Data ]
ABOUT SSD CREDITS/AWARDS PRIVACY/COPYRIGHT GLOSSARY LINKS
FirstGov 2019-Dec-15 08:17 UT
(server date/time)  
NASA Home Page
Site Manager:   Ryan S. Park
Webmaster  Alan B. Chamberlin